Flag for Netherlands Weather past 2 weeks in Nijmegen, Netherlands

Now
59 °F

Passing clouds.


Feels Like: 57 °F
Forecast: 45 / 63 °F
Wind: 10 mph from West

Location: Volkel

Current Time: May 30, 2015 at 7:47:07 PM

Latest Report: May 30, 2015 at 6:55 PM


Visibility: N/A

Pressure: 30.01 "Hg

Humidity: 45%

Dew point: 37 °F

Location of NijmegenLocation

Historic Weather in Nijmegen — Graph

°F

Nijmegen temperature yesterday

Maximum temperature yesterday: 63 °F (at 1:25 PM)
Minimum temperature yesterday: 45 °F (at 1:55 AM)
Average temperature yesterday: 54 °F

Past Weeks' High & Low Weather Summary

 TemperatureHumidityPressure
High70 °F (May 22, 2:55 PM)100% (May 16, 12:25 PM)30.33 "Hg (May 16, 12:25 PM)
Low39 °F (May 21, 2:55 AM)31% (May 24, 8:55 PM)29.62 "Hg (May 18, 9:25 PM)
Average54 °F71%30.04 "Hg
* Reported May 15 6:25 PM — May 30 6:55 PM, Nijmegen, Weather by CustomWeather, © 2015

Note: Actual official high and low records may vary slightly from our data, if they occured in-between our weather recording intervals... More about our weather records

Advertising

Nijmegen weather history for previous 24 hours

 ConditionsComfort  
Time TempWeatherWind HumidityBarometerVisibility
6:55 PM
Sat, May 30
59 °FPassing clouds.10 mph45%30.01 "HgN/A
6:25 PM59 °FPassing clouds.12 mph45%29.98 "HgN/A
5:55 PM59 °FPassing clouds.12 mph42%29.98 "HgN/A
5:25 PM61 °FScattered clouds.13 mph39%29.98 "HgN/A
4:55 PM61 °FPassing clouds.12 mph42%29.98 "HgN/A
4:25 PM61 °FScattered clouds.15 mph45%29.98 "HgN/A
3:55 PM61 °FScattered clouds.14 mph42%29.95 "HgN/A
3:25 PM59 °FScattered clouds.14 mph51%29.95 "HgN/A
2:55 PM57 °FPassing clouds.15 mph55%29.95 "HgN/A
2:25 PM59 °FPartly sunny.15 mph59%29.95 "HgN/A
1:55 PM55 °FPassing clouds.13 mph67%29.95 "HgN/A
1:25 PM54 °FScattered clouds.14 mph72%29.95 "HgN/A
12:55 PM54 °FLight rain. Partly sunny.21 mph72%29.95 "HgN/A
12:25 PM52 °FScattered clouds.12 mph82%29.92 "HgN/A
11:55 AM48 °FLight rain. Broken clouds.9 mph87%29.92 "HgN/A
11:25 AM48 °FLight rain. Broken clouds.3 mph87%29.92 "HgN/A
11:00 AM48 °FLight rain. Broken clouds.5 mph87%29.92 "HgN/A
10:55 AM48 °FLight rain. Broken clouds.5 mph87%29.92 "HgN/A
10:25 AM46 °FPartly sunny.3 mph87%29.89 "HgN/A
9:55 AM46 °FLight rain. Mostly cloudy.10 mph82%29.92 "HgN/A
9:25 AM50 °FDrizzle. Broken clouds.15 mph71%29.89 "HgN/A
8:55 AM54 °FPartly sunny.12 mph72%29.86 "HgN/A
8:25 AM52 °FCool.12 mph82%29.86 "HgN/A
7:55 AM50 °FCool.12 mph88%29.86 "HgN/A
7:25 AM48 °FFog.10 mph94%29.86 "Hg5 mi
6:55 AM46 °FFog.9 mph100%29.83 "Hg4 mi
6:25 AM45 °FFog.7 mph93%29.83 "Hg6 mi
5:55 AM43 °FQuite cool.7 mph100%29.83 "HgN/A
5:25 AM45 °FQuite cool.7 mph93%29.83 "HgN/A
4:55 AM45 °FPassing clouds.8 mph93%29.80 "HgN/A
4:25 AM45 °FFog.7 mph93%29.80 "Hg5 mi
4:04 AM46 °FFog.7 mph93%29.80 "Hg5 mi
3:25 AM45 °FFog.8 mph100%29.80 "Hg3 mi
2:55 AM46 °FFog.6 mph93%29.77 "Hg3 mi
2:25 AM46 °FFog.8 mph93%29.77 "Hg4 mi
1:55 AM48 °FPassing clouds.7 mph94%29.77 "HgN/A
1:25 AM48 °FPassing clouds.9 mph94%29.77 "HgN/A
12:55 AM48 °FPassing clouds.12 mph94%29.77 "HgN/A
12:25 AM48 °FPartly cloudy.10 mph94%29.77 "HgN/A
11:55 PM
Fri, May 29
48 °FPartly cloudy.14 mph94%29.74 "HgN/A
11:25 PM48 °FPartly cloudy.13 mph94%29.74 "HgN/A
10:55 PM48 °FMostly cloudy.14 mph94%29.74 "HgN/A
10:25 PM48 °FMore clouds than sun.12 mph94%29.74 "HgN/A
9:55 PM48 °FBroken clouds.14 mph94%29.74 "HgN/A
9:25 PM48 °FLight rain. Overcast.14 mph94%29.74 "HgN/A
8:55 PM50 °FDrizzle. Mostly cloudy.16 mph82%29.74 "HgN/A
8:25 PM50 °FLight rain. Overcast.10 mph88%29.74 "HgN/A
7:55 PM50 °FSprinkles. More clouds than sun.15 mph88%29.74 "HgN/A
7:25 PM57 °FDrizzle. Mostly cloudy.18 mph63%29.71 "HgN/A
Weather by CustomWeather, © 2015

See weather overviewHow to use our weather pages